FW4383 Weather Reports


Display with metric or nautical units.
time (UTC)temp
F
wind
direction
speed
MPH
gust
MPH
rain 1hr
in
rain 24hr
in
rain mn
in
humidity
%
barometer
mb
20260902131538 59 275 5.0 11.0 0.00 0.00 0.00 73 1012.1
20260902124538 59 270 3.0 9.0 0.00 0.00 0.00 72 1012.1
20260902123035 59 272 4.0 11.0 0.00 0.00 0.00 72 1012.2
20260902121535 59 257 4.0 10.0 0.00 0.00 0.00 72 1012.2
20260902120141 60 276 3.0 11.0 0.00 0.00 0.00 72 1012.3
20260902114535 60 266 5.0 10.0 0.00 0.00 0.00 71 1012.5
20260902113033 60 266 4.0 11.0 0.00 0.00 0.00 71 1012.5
20260902104535 60 252 5.0 15.0 0.00 0.00 0.00 72 1012.6
20260902103108 60 277 5.0 12.0 0.00 0.00 0.00 74 1012.7
20260902101536 61 278 7.0 15.0 0.00 0.00 0.00 74 1012.6
20260902100036 61 271 7.0 14.0 0.00 0.00 0.00 74 1012.7
20260902094647 60 273 6.0 14.0 0.00 0.00 0.00 74 1012.7
20260902093031 60 271 5.0 11.0 0.00 0.00 0.00 74 1012.9
20260902084605 60 260 6.0 15.0 0.00 0.00 0.00 75 1012.9
20260902083035 60 268 8.0 17.0 0.00 0.00 0.00 75 1012.9
20260902080032 60 268 7.0 16.0 0.00 0.00 0.00 75 1013.0
20260902073031 61 273 7.0 17.0 0.00 0.00 0.00 75 1013.2
20260902071611 61 268 9.0 18.0 0.00 0.00 0.00 73 1013.3
20260902070035 62 266 10.0 19.0 0.00 0.00 0.00 71 1013.5
20260902064533 62 269 10.0 21.0 0.00 0.00 0.00 71 1013.6
20260902063149 62 273 9.0 18.0 0.00 0.00 0.00 71 1013.6
20260902061610 63 267 8.0 18.0 0.00 0.00 0.00 70 1013.7
20260902060036 63 270 9.0 21.0 0.00 0.00 0.00 70 1013.8
20260902054535 63 269 9.0 17.0 0.00 0.00 0.00 69 1013.7
20260902053036 63 269 9.0 18.0 0.00 0.00 0.00 68 1013.8
20260902051535 63 272 10.0 24.0 0.00 0.00 0.00 68 1013.6
20260902050035 64 273 11.0 22.0 0.00 0.00 0.00 67 1013.3
20260902044532 64 268 10.0 22.0 0.00 0.00 0.00 66 1013.2
20260902041536 64 262 9.0 19.0 0.00 0.00 0.00 65 1013.0
20260902040035 64 277 7.0 17.0 0.00 0.00 0.00 64 1012.9
20260902034531 65 264 8.0 18.0 0.00 0.00 0.00 64 1012.7
20260902033034 65 274 7.0 15.0 0.00 0.00 0.00 65 1012.6
20260902031533 65 271 8.0 17.0 0.00 0.00 0.00 65 1012.5
20260902030031 65 267 10.0 22.0 0.00 0.00 0.00 66 1012.6
20260902021537 65 261 8.0 18.0 0.00 0.00 0.00 63 1012.4
20260902020035 66 266 8.0 15.0 0.00 0.00 0.00 62 1012.3
20260902014535 67 262 10.0 21.0 0.00 0.00 0.00 60 1012.3
20260902013038 67 258 9.0 21.0 0.00 0.00 0.00 59 1012.2
20260902011535 68 258 10.0 21.0 0.00 0.00 0.00 58 1012.1
20260902010035 69 259 8.0 20.0 0.00 0.00 0.00 57 1012.0
20260902004651 68 251 9.0 20.0 0.00 0.00 0.00 58 1011.9
20260902003034 68 262 11.0 22.0 0.00 0.00 0.00 58 1011.9
20260902001751 0 0 0.0 0.0 0.00 0.00 0.00 100
20260902000034 67 273 11.0 24.0 0.00 0.00 0.00 61 1011.8
20260901234533 67 273 10.0 24.0 0.00 0.00 0.00 61 1011.8
20260901231537 68 273 11.0 22.0 0.00 0.00 0.00 60 1011.8
20260901230035 68 265 12.0 25.0 0.00 0.00 0.00 60 1011.9
20260901224537 68 268 12.0 20.0 0.00 0.00 0.00 61 1011.8
20260901221534 66 269 13.0 23.0 0.00 0.00 0.00 63 1011.4
20260901213035 68 277 13.0 25.0 0.00 0.00 0.00 60 1011.3
20260901211648 68 269 15.0 27.0 0.00 0.00 0.00 60 1011.4
20260901210031 68 279 15.0 31.0 0.00 0.00 0.00 59 1011.4
20260901204534 68 269 14.0 27.0 0.00 0.00 0.00 59 1011.5
20260901200035 67 275 12.0 24.0 0.00 0.00 0.00 60 1011.8
20260901193032 67 272 12.0 27.0 0.00 0.00 0.00 62 1012.4
20260901191534 67 278 12.0 26.0 0.00 0.00 0.00 63 1012.6
20260901190036 66 278 12.0 26.0 0.00 0.00 0.00 63 1012.7
20260901184538 66 273 11.0 20.0 0.00 0.00 0.00 64 1012.7
20260901183035 66 273 12.0 24.0 0.00 0.00 0.00 65 1012.9
20260901181536 65 279 9.0 19.0 0.00 0.00 0.00 66 1013.0
20260901174533 64 266 11.0 22.0 0.00 0.00 0.00 69 1013.2
20260901173032 64 272 8.0 18.0 0.00 0.00 0.00 70 1013.2
20260901171534 62 275 11.0 21.0 0.00 0.00 0.00 72 1013.2
20260901170036 62 272 10.0 25.0 0.00 0.00 0.00 74 1013.2
20260901164608 61 269 10.0 21.0 0.00 0.00 0.00 75 1013.2
20260901163037 61 272 10.0 21.0 0.00 0.00 0.00 75 1013.2
20260901161617 61 267 11.0 23.0 0.00 0.00 0.00 75 1013.2
20260901160031 60 269 8.0 18.0 0.00 0.00 0.00 76 1013.0
20260901154534 60 269 8.0 17.0 0.00 0.00 0.00 77 1013.0
20260901153037 59 270 6.0 14.0 0.00 0.00 0.00 78 1013.1
20260901151536 59 267 6.0 13.0 0.00 0.00 0.00 78 1013.1
20260901144535 59 256 6.0 12.0 0.00 0.00 0.00 79 1012.9
20260901143035 59 255 7.0 13.0 0.00 0.00 0.00 79 1012.8
20260901140033 60 264 7.0 13.0 0.00 0.00 0.00 78 1012.5
20260901134641 60 259 7.0 17.0 0.00 0.00 0.00 77 1012.4